User: anonymous   Login
Location: Limerick
(52.6800°N, 8.6400°W)
Time: 13:54:18
(UTC+00:00)
Language:

Sapphire - Orbit

View from above orbital plane
View from above orbital plane
View from above satellite
View from above satellite

Ground track
Ground track

The orbit data is extracted from the following two-line orbital elements,

1 26932U 01043D   15058.57384793  .00000054  00000-0  52947-4 0  9995
2 26932 067.0554 101.0596 0008593 260.9779 099.0350 14.30110862700164
Epoch (UTC): 27 February 2015 13:46:20
Eccentricity: 0.0008593
inclination: 67.0554°
perigee height: 785 km
apogee height: 797 km
right ascension of ascending node: 101.0596°
argument of perigee: 260.9779°
revolutions per day: 14.30110862
mean anomaly at epoch: 99.0350°
orbit number at epoch: 70016

The dashed part of the orbit path shows where the satellite is in the earth's shadow,  

DLR